FENGYUN 1C DEB, 30010

Orbit data source: Space-Track

FENGYUN 1C DEB, 30010 is space debris in SSO originally from a launch on Mon, 10 May 1999 UTC launched from the Taiyaun Space Center, China (TSC). Fengyun 1C debris stems from the Chinese weather satellite Fengyun-1C, which was intentionally destroyed by a Chinese anti-satellite missile in 2007. This event dramatically increased the amount of space debris, with thousands of trackable fragments posing hazards to satellites and human spaceflight. The Fengyun 1C debris cloud has become a focal point in discussions about space sustainability and the need for international regulations to prevent the creation of new debris.

Loading next visibility...
Identifier
30010, 1999-025MK
Orbit
SSO
Country
Flag of CNCN / PRC
Related business
Manufacturer
Unknown
Mission
Spacecraft
Bus & Motor
Unknown
Mass
Unknown
Launch date (UTC)
1999-05-10 (26 years ago)
Launch vehicle
Unknown
Launch site
Taiyaun Space Center, China (TSC)
Object type
Payload
Rocket body
Debris
Shape & HBR
Unknown shape, 0.2 m
Radar Cross Section
Medium (>0.1 m² and <1 m²)

Expand to show TLE details & history
Last TLE update: 15 hours ago

TLE from 15 hours ago
0 FENGYUN 1C DEB
1 30010U 99025MK  25298.49015521  .00000306  00000-0  14710-3 0  9997
2 30010  99.0738 129.0291 0073116 349.3648  75.5560 14.24941620975733
Epoch: 2025-10-25T11:45Z
TLE epoch observation values (Epoch: 2025-10-25T11:45:49.410Z)
Latitude
64.28028°
Longitude
-100.8028°
Altitude
806.972 km
Speed
7.463 km/s
True Right ascension
07h 19m 05s
True Declination
64° 08' 47"
Sunlit
Object was in daylight at epoch
Visualization orbit readout
Latitude
Unknown
Longitude
Unknown
Altitude
Unknown
Speed
Unknown
Apparent Right ascension
Unknown
Apparent Declination
Unknown
Sunlit
N/A
Visualization observer readout
Local Sidereal Time
21:53:52
Azimuth
Unknown
Elevation
Unknown
Doppler factor
Unknown
Orbital elements
Apogee altitude
858.385 km
Perigee altitude
753.332 km
Semi-major axis
7,183.996 km
Eccentricity
0.00731
Inclination
99.0738°
RAAN
129.0291°
Arg. of periapsis
349.3648°
True anomaly
76.36919°
Mean anomaly
75.556°
Eccentric anomaly
75.96241°
Mean motion
3.56446 °/min
Orbital period
101 mins
BSTAR
0.0001471
Loading maneuver chart data...
Computing Atmospheric mass density...

Documentation

Showing up to 5 results
|